Flag for Romania Weather past 2 weeks in Târgu Mureş, Romania

Now
81 °F

Passing clouds.


Feels Like: 82 °F
Forecast: 59 / 81 °F
Wind: 5 mph from North

Location: Tirgu Mures Airport

Current Time: Jul 30, 2015 at 6:14:32 PM

Latest Report: Jul 30, 2015 at 5:30 PM


Visibility: N/A

Pressure: 29.86 "Hg

Humidity: 54%

Dew point: 63 °F

Location of Târgu MureşLocation

Historic Weather in Târgu Mureş — Graph

°F

Târgu Mureş temperature yesterday

Maximum temperature yesterday: 90 °F (at 4:30 PM)
Minimum temperature yesterday: 55 °F (at 6:00 AM)
Average temperature yesterday: 74 °F

Past Weeks' High & Low Weather Summary

 TemperatureHumidityPressure
High95 °F (Jul 23, 3:30 PM)100% (Jul 16, 5:00 AM)30.18 "Hg (Jul 16, 5:00 AM)
Low54 °F (Jul 17, 6:00 AM)20% (Jul 23, 6:00 PM)29.71 "Hg (Jul 27, 6:00 PM)
Average75 °F62%29.96 "Hg
* Reported Jul 15 5:00 PM — Jul 30 5:00 PM, Târgu Mureş, Weather by CustomWeather, © 2015

Note: Actual official high and low records may vary slightly from our data, if they occured in-between our weather recording intervals... More about our weather records

Advertising

Târgu Mureş weather history for previous 24 hours

 ConditionsComfort  
Time TempWeatherWind HumidityBarometerVisibility
5:00 PM
Thu, Jul 30
81 °FPassing clouds.6 mph51%29.86 "HgN/A
4:30 PM81 °FPassing clouds.5 mph51%29.86 "HgN/A
4:00 PM79 °FPassing clouds.3 mph54%29.86 "HgN/A
3:30 PM77 °FPassing clouds.5 mph57%29.86 "HgN/A
3:18 PM79 °FPassing clouds.5 mph54%29.86 "HgN/A
3:00 PM79 °FPassing clouds.5 mph54%29.86 "HgN/A
2:30 PM77 °FPassing clouds.7 mph61%29.89 "HgN/A
2:00 PM75 °FPassing clouds.7 mph69%29.89 "HgN/A
1:30 PM75 °FPassing clouds.3 mph69%29.89 "HgN/A
1:00 PM73 °FPassing clouds.5 mph74%29.89 "HgN/A
12:30 PM72 °FPassing clouds.6 mph78%29.89 "HgN/A
12:00 PM68 °FSprinkles. Passing clouds.3 mph88%29.89 "HgN/A
11:30 AM66 °FSprinkles. Scattered clouds.5 mph88%29.89 "HgN/A
11:00 AM68 °FSprinkles. Passing clouds.5 mph78%29.89 "Hg5 mi
10:30 AM72 °FPassing clouds.8 mph69%29.89 "HgN/A
10:00 AM72 °FPassing clouds.8 mph65%29.92 "HgN/A
9:30 AM70 °FPassing clouds.7 mph73%29.92 "HgN/A
9:00 AM68 °FPassing clouds.8 mph73%29.89 "HgN/A
8:30 AM68 °FPassing clouds.3 mph73%29.89 "HgN/A
8:00 AM66 °FPassing clouds.6 mph78%29.89 "HgN/A
7:30 AM66 °FPassing clouds.1 mph78%29.89 "HgN/A
7:00 AM64 °FScattered clouds.1 mph83%29.86 "HgN/A
6:30 AM64 °FPassing clouds.2 mph83%29.86 "HgN/A
6:00 AM64 °FPassing clouds.5 mph88%29.86 "HgN/A
5:30 AM61 °FPassing clouds.No wind94%29.83 "HgN/A
5:00 AM61 °FClear.1 mph94%29.83 "Hg10 mi
4:00 AM63 °FClear.No wind88%29.83 "Hg10 mi
3:00 AM63 °FClear.No wind88%29.83 "Hg10 mi
2:00 AM64 °FClear.No wind88%29.83 "Hg10 mi
1:00 AM66 °FClear.No wind83%29.83 "Hg10 mi
12:00 AM66 °FClear.No wind83%29.83 "Hg10 mi
11:00 PM
Wed, Jul 29
70 °FClear.No wind78%29.83 "Hg10 mi
10:00 PM72 °FPassing clouds.2 mph73%29.80 "HgN/A
9:00 PM77 °FSunny.1 mph54%29.80 "Hg10 mi
8:30 PM77 °FSunny.1 mph57%29.80 "Hg10 mi
8:00 PM81 °FSunny.6 mph51%29.80 "Hg10 mi
7:30 PM84 °FSunny.3 mph43%29.80 "Hg10 mi
7:00 PM88 °FSunny.5 mph33%29.80 "Hg10 mi
6:30 PM88 °FPassing clouds.5 mph33%29.80 "HgN/A
6:00 PM88 °FSunny.5 mph31%29.80 "Hg10 mi
Weather by CustomWeather, © 2015

See weather overviewHow to use our weather pages